When you browse on this site, cookies collect data to enhance your experience and personalize the content and advertising you see.
Visit our Privacy Policy to learn more. By continuing to use the site, you agree to this use of cookies and data.
  • En España
  • Lista de países
  • Para 7 días
  • Temperatura del agua
  • Mapa Satelital
  • El tiempo en el mapa
  • Informadores
  • user-avatar
    Iniciar sesión

    Tiempo cada hora Punta Gorda

    Hoy, 17 Noviembre, Sábado

    Tiempo Temperatura Precipitaciones Viento Presión Humedad
    00:00 +23°C° 0 mm 2 mps 763 mmHg 81%
    01:00 +23°C° 0.1 mm 2 mps 762 mmHg 82%
    02:00 +23°C° 0.1 mm 2 mps 762 mmHg 83%
    03:00 +23°C° 0.1 mm 2 mps 762 mmHg 85%
    04:00 +23°C° 0.2 mm 2 mps 762 mmHg 86%
    05:00 +23°C° 0.2 mm 2 mps 763 mmHg 88%
    06:00 +21°C° 0.2 mm 2 mps 763 mmHg 90%
    07:00 +23°C° 0.3 mm 2 mps 763 mmHg 89%
    08:00 +23°C° 0.3 mm 2 mps 764 mmHg 88%
    09:00 +23°C° 0.3 mm 2 mps 764 mmHg 86%
    10:00 +24°C° 0.3 mm 2 mps 763 mmHg 86%
    11:00 +24°C° 0.3 mm 2 mps 763 mmHg 86%
    12:00 +24°C° 0.3 mm 2 mps 763 mmHg 85%
    13:00 +24°C° 0.3 mm 2 mps 762 mmHg 87%
    14:00 +24°C° 0.3 mm 2 mps 761 mmHg 89%
    15:00 +24°C° 0.3 mm 2 mps 761 mmHg 90%
    16:00 +24°C° 0.6 mm 2 mps 761 mmHg 91%
    17:00 +24°C° 0.6 mm 2 mps 761 mmHg 93%
    18:00 +23°C° 0.6 mm 2 mps 761 mmHg 94%
    19:00 +23°C° 0.6 mm 2 mps 762 mmHg 94%
    20:00 +23°C° 0.6 mm 2 mps 762 mmHg 95%
    21:00 +24°C° 0.6 mm 2 mps 763 mmHg 95%
    22:00 +23°C° 0.4 mm 2 mps 762 mmHg 96%
    23:00 +23°C° 0.4 mm 2 mps 762 mmHg 96%

    Mañana, 18 Noviembre, Domingo

    Tiempo Temperatura Precipitaciones Viento Presión Humedad
    00:00 +23°C° 0.4 mm 2 mps 762 mmHg 97%
    01:00 +23°C° 0.4 mm 2 mps 762 mmHg 97%
    02:00 +24°C° 0.4 mm 2 mps 761 mmHg 97%
    03:00 +24°C° 0.4 mm 2 mps 761 mmHg 97%
    04:00 +24°C° 0.3 mm 2 mps 761 mmHg 97%
    05:00 +24°C° 0.3 mm 2 mps 761 mmHg 97%
    06:00 +24°C° 0.3 mm 1 mps 761 mmHg 97%
    07:00 +24°C° 0.2 mm 1 mps 762 mmHg 97%
    08:00 +25°C° 0.2 mm 1 mps 762 mmHg 96%
    09:00 +25°C° 0.2 mm 1 mps 763 mmHg 95%
    10:00 +26°C° 0.3 mm 1 mps 762 mmHg 92%
    11:00 +27°C° 0.3 mm 1 mps 762 mmHg 89%
    12:00 +28°C° 0.3 mm 2 mps 762 mmHg 86%
    13:00 +28°C° 0.9 mm 2 mps 761 mmHg 86%
    14:00 +28°C° 0.9 mm 2 mps 761 mmHg 87%
    15:00 +28°C° 0.9 mm 2 mps 760 mmHg 87%
    16:00 +27°C° 1.1 mm 2 mps 760 mmHg 90%
    17:00 +26°C° 1.1 mm 2 mps 760 mmHg 94%
    18:00 +25°C° 1.1 mm 2 mps 761 mmHg 97%
    19:00 +25°C° 0.7 mm 2 mps 761 mmHg 97%
    20:00 +25°C° 0.7 mm 2 mps 762 mmHg 97%
    21:00 +25°C° 0.7 mm 2 mps 762 mmHg 98%
    22:00 +25°C° 1.1 mm 1 mps 762 mmHg 98%
    23:00 +25°C° 1.1 mm 1 mps 762 mmHg 98%

    Pasado mañana, 19 Noviembre, Lunes

    Tiempo Temperatura Precipitaciones Viento Presión Humedad
    00:00 +24°C° 1.1 mm 1 mps 762 mmHg 98%
    01:00 +24°C° 1 mm 1 mps 761 mmHg 98%
    02:00 +24°C° 1 mm 1 mps 761 mmHg 98%
    03:00 +24°C° 1 mm 1 mps 760 mmHg 98%
    04:00 +24°C° 0.5 mm 1 mps 761 mmHg 98%
    05:00 +24°C° 0.5 mm 1 mps 761 mmHg 98%
    06:00 +24°C° 0.5 mm 1 mps 761 mmHg 98%
    07:00 +25°C° 0.2 mm 1 mps 761 mmHg 93%
    08:00 +27°C° 0.2 mm 1 mps 762 mmHg 89%
    09:00 +28°C° 0.2 mm 1 mps 762 mmHg 84%
    10:00 +29°C° 0.5 mm 1 mps 762 mmHg 80%
    11:00 +30°C° 0.5 mm 1 mps 761 mmHg 77%
    12:00 +31°C° 0.5 mm 1 mps 760 mmHg 73%
    13:00 +31°C° 0.3 mm 2 mps 760 mmHg 74%
    14:00 +31°C° 0.3 mm 2 mps 759 mmHg 74%
    15:00 +31°C° 0.3 mm 2 mps 758 mmHg 74%
    16:00 +29°C° 0.1 mm 2 mps 758 mmHg 80%
    17:00 +28°C° 0.1 mm 2 mps 759 mmHg 85%
    18:00 +27°C° 0.1 mm 2 mps 759 mmHg 90%
    19:00 +26°C° 0.3 mm 1 mps 760 mmHg 92%
    20:00 +26°C° 0.3 mm 1 mps 761 mmHg 93%
    21:00 +25°C° 0.3 mm 1 mps 761 mmHg 95%
    22:00 +25°C° 0.4 mm 1 mps 761 mmHg 95%
    23:00 +25°C° 0.4 mm 1 mps 761 mmHg 96%

    20 Noviembre, Martes

    Tiempo Temperatura Precipitaciones Viento Presión Humedad
    00:00 +25°C° 0.4 mm 1 mps 761 mmHg 96%
    01:00 +25°C° 0.3 mm 1 mps 761 mmHg 96%
    02:00 +25°C° 0.3 mm 1 mps 760 mmHg 97%
    03:00 +25°C° 0.3 mm 1 mps 760 mmHg 97%
    04:00 +25°C° 0.3 mm 1 mps 760 mmHg 97%
    05:00 +24°C° 0.3 mm 1 mps 760 mmHg 97%
    06:00 +24°C° 0.3 mm 1 mps 761 mmHg 96%
    07:00 +26°C° 0.1 mm 1 mps 761 mmHg 89%
    08:00 +28°C° 0.1 mm 1 mps 762 mmHg 81%
    09:00 +30°C° 0.1 mm 1 mps 762 mmHg 73%
    10:00 +31°C° 0.1 mm 1 mps 762 mmHg 69%
    11:00 +32°C° 0.1 mm 1 mps 761 mmHg 66%
    12:00 +32°C° 0.1 mm 1 mps 761 mmHg 62%
    13:00 +32°C° 0.3 mm 1 mps 760 mmHg 65%
    14:00 +32°C° 0.3 mm 2 mps 759 mmHg 67%
    15:00 +31°C° 0.3 mm 2 mps 759 mmHg 69%
    16:00 +30°C° 0.3 mm 2 mps 759 mmHg 75%
    17:00 +29°C° 0.3 mm 2 mps 760 mmHg 80%
    18:00 +27°C° 0.3 mm 2 mps 760 mmHg 85%
    19:00 +27°C° 0.2 mm 2 mps 761 mmHg 88%
    20:00 +26°C° 0.2 mm 2 mps 761 mmHg 90%
    21:00 +26°C° 0.2 mm 1 mps 762 mmHg 93%
    22:00 +26°C° 0.5 mm 1 mps 762 mmHg 93%
    23:00 +25°C° 0.5 mm 1 mps 762 mmHg 94%

    21 Noviembre, Miércoles

    Tiempo Temperatura Precipitaciones Viento Presión Humedad
    00:00 +25°C° 0.5 mm 1 mps 762 mmHg 95%
    01:00 +25°C° 0.8 mm 1 mps 761 mmHg 95%
    02:00 +25°C° 0.8 mm 1 mps 761 mmHg 96%
    03:00 +25°C° 0.8 mm 1 mps 761 mmHg 96%
    04:00 +25°C° 0.3 mm 1 mps 761 mmHg 96%
    05:00 +25°C° 0.3 mm 1 mps 762 mmHg 96%
    06:00 +25°C° 0.3 mm 1 mps 762 mmHg 96%
    07:00 +26°C° 0.4 mm 1 mps 762 mmHg 89%
    08:00 +28°C° 0.4 mm 1 mps 763 mmHg 82%
    09:00 +29°C° 0.4 mm 1 mps 763 mmHg 76%
    10:00 +30°C° 0.5 mm 1 mps 763 mmHg 73%
    11:00 +31°C° 0.5 mm 1 mps 762 mmHg 71%
    12:00 +32°C° 0.5 mm 1 mps 761 mmHg 69%
    13:00 +31°C° 0.3 mm 2 mps 761 mmHg 69%
    14:00 +31°C° 0.3 mm 2 mps 760 mmHg 69%
    15:00 +31°C° 0.3 mm 2 mps 760 mmHg 68%
    16:00 +30°C° 0.1 mm 2 mps 760 mmHg 74%
    17:00 +28°C° 0.1 mm 2 mps 760 mmHg 80%
    18:00 +27°C° 0.1 mm 2 mps 761 mmHg 86%
    19:00 +26°C° 0.2 mm 1 mps 761 mmHg 88%
    20:00 +26°C° 0.2 mm 1 mps 762 mmHg 90%
    21:00 +25°C° 0.2 mm 1 mps 762 mmHg 92%
    22:00 +25°C° 0.4 mm 1 mps 762 mmHg 93%
    23:00 +25°C° 0.4 mm 1 mps 762 mmHg 94%

    22 Noviembre, Jueves

    Tiempo Temperatura Precipitaciones Viento Presión Humedad
    00:00 +25°C° 0.4 mm 1 mps 762 mmHg 95%
    01:00 +25°C° 0.5 mm 1 mps 761 mmHg 95%
    02:00 +24°C° 0.5 mm 1 mps 761 mmHg 95%
    03:00 +24°C° 0.5 mm 1 mps 761 mmHg 95%
    04:00 +24°C° 0.1 mm 1 mps 761 mmHg 95%
    05:00 +24°C° 0.1 mm 1 mps 761 mmHg 95%
    06:00 +24°C° 0.1 mm 1 mps 761 mmHg 95%
    07:00 +26°C° 0.2 mm 1 mps 762 mmHg 88%
    08:00 +28°C° 0.2 mm 1 mps 762 mmHg 81%
    09:00 +30°C° 0.2 mm 1 mps 762 mmHg 74%
    10:00 +30°C° 0.4 mm 1 mps 761 mmHg 73%
    11:00 +31°C° 0.4 mm 1 mps 761 mmHg 72%
    12:00 +31°C° 0.4 mm 1 mps 760 mmHg 71%
    13:00 +31°C° 0.8 mm 1 mps 760 mmHg 73%
    14:00 +30°C° 0.8 mm 2 mps 759 mmHg 75%
    15:00 +30°C° 0.8 mm 3 mps 759 mmHg 77%
    16:00 +29°C° 0.5 mm 2 mps 759 mmHg 82%
    17:00 +27°C° 0.5 mm 2 mps 760 mmHg 86%
    18:00 +26°C° 0.5 mm 2 mps 760 mmHg 91%
    19:00 +26°C° 0.2 mm 2 mps 761 mmHg 92%
    20:00 +26°C° 0.2 mm 1 mps 761 mmHg 94%
    21:00 +25°C° 0.2 mm 1 mps 761 mmHg 95%
    22:00 +25°C° 0.4 mm 1 mps 761 mmHg 96%
    23:00 +25°C° 0.4 mm 1 mps 761 mmHg 96%
    Mostrar más